Newark, NJ

8:59 AM EDT on October 16, 2019 (GMT -0400)
Newark International

Weather History for KEWR - May, 2019

Change the Weather History Date:

Tuesday, May 7, 2019

  Actual Average Record
Temperature  
Mean Temperature 65 °F 60 °F  
Max Temperature 75 °F 69 °F 94 °F (2000)
Min Temperature 54 °F 51 °F 38 °F (1970)
Degree Days  
Heating Degree Days 0 6  
Month to date heating degree days 39 48  
Since 1 July heating degree days 4633 4768  
Cooling Degree Days 0 1  
Month to date cooling degree days 0 7  
Year to date cooling degree days 15 19  
Growing Degree Days 14 (Base 50)    
Moisture  
Dew Point 52 °F    
Average Humidity 64    
Maximum Humidity 77    
Minimum Humidity 50    
Precipitation  
Precipitation 0.18 in 0.12 in 1.07 in (1942)
Month to date precipitation 1.94 0.86  
Year to date precipitation 17.59 15.66  
Snow  
Snow 0.00 in 0.00 in 0.00 in (2002)
Month to date snowfall 0.0 0.0  
Since 1 July snowfall 22.0 28.5  
Snow Depth 0.00 in    
Sea Level Pressure  
Sea Level Pressure 30.14 in    
Wind  
Wind Speed 7 mph (SE)    
Max Wind Speed 18 mph    
Max Gust Speed 22 mph    
Visibility 10 miles    
Events Rain , Thunderstorm    
T = Trace of Precipitation, MM = Missing Value Source: NWS Daily Summary

Daily Weather History Graph

Daily Weather History Graph

Search for Another Location

Airport or City:

Astronomy

May. 07, 2019 Rise Set
Actual Time 5:48 AM EDT 7:58 PM EDT
Civil Twilight 5:18 AM EDT 8:29 PM EDT
Nautical Twilight 4:41 AM EDT 9:06 PM EDT
Astronomical Twilight 4:00 AM EDT 9:47 PM EDT
Moon 7:52 AM EDT (5/7) 10:57 PM EDT (5/7)
Length of Visible Light 15h 10m
Length of Day
14h 10m
Waxing Crescent, 8% of the Moon is Illuminated
May 7
Waxing Crescent
May 11
First Quarter
May 18
Full
May 26
Last Quarter
Jun 3
New

Hourly Weather History & Observations

Time (EDT) Temp. Dew Point Humidity Pressure Visibility Wind Dir Wind Speed Gust Speed Precip Events Conditions
12:51 AM 57.0 °F 48.9 °F 74% 30.14 in 10.0 mi SE 4.6 mph - N/A   Mostly Cloudy
1:51 AM 55.9 °F 48.9 °F 77% 30.15 in 10.0 mi SE 5.8 mph - N/A   Mostly Cloudy
2:09 AM 55.9 °F 48.0 °F 75% 30.15 in 10.0 mi SE 5.8 mph - N/A   Mostly Cloudy
2:51 AM 54.0 °F 46.9 °F 77% 30.15 in 10.0 mi South 6.9 mph - N/A   Scattered Clouds
3:51 AM 54.0 °F 46.9 °F 77% 30.16 in 10.0 mi SSE 6.9 mph - N/A   Mostly Cloudy
4:11 AM 54.0 °F 46.9 °F 77% 30.16 in 10.0 mi SSE 6.9 mph - N/A   Mostly Cloudy
4:51 AM 55.0 °F 46.9 °F 74% 30.16 in 10.0 mi SSE 5.8 mph - N/A   Overcast
5:51 AM 55.0 °F 46.9 °F 74% 30.15 in 10.0 mi SSE 5.8 mph - N/A   Overcast
6:51 AM 55.0 °F 46.9 °F 74% 30.16 in 10.0 mi SSE 3.5 mph - N/A   Overcast
7:51 AM 55.9 °F 46.9 °F 72% 30.18 in 10.0 mi SE 4.6 mph - N/A   Overcast
8:51 AM 57.9 °F 48.0 °F 70% 30.19 in 10.0 mi SSE 3.5 mph - N/A   Mostly Cloudy
9:24 AM 59.0 °F 48.9 °F 69% 30.18 in 10.0 mi South 6.9 mph - N/A   Mostly Cloudy
9:39 AM 60.1 °F 48.0 °F 64% 30.19 in 10.0 mi South 6.9 mph - N/A   Mostly Cloudy
9:51 AM 60.1 °F 48.9 °F 67% 30.19 in 10.0 mi SSW 6.9 mph - N/A   Mostly Cloudy
10:51 AM 62.1 °F 51.1 °F 67% 30.18 in 10.0 mi SSE 8.1 mph - N/A   Mostly Cloudy
11:08 AM 64.0 °F 52.0 °F 65% 30.18 in 10.0 mi SSW 9.2 mph - N/A   Mostly Cloudy
11:51 AM 64.9 °F 52.0 °F 63% 30.17 in 10.0 mi SSE 11.5 mph - N/A   Partly Cloudy
12:51 PM 69.1 °F 54.0 °F 58% 30.16 in 10.0 mi SSE 6.9 mph - N/A   Partly Cloudy
1:51 PM 68.0 °F 52.0 °F 56% 30.15 in 10.0 mi SE 9.2 mph - N/A   Mostly Cloudy
2:51 PM 71.1 °F 54.0 °F 55% 30.13 in 10.0 mi SE 8.1 mph - N/A   Scattered Clouds
3:51 PM 73.9 °F 55.0 °F 52% 30.10 in 10.0 mi SE 8.1 mph - N/A   Scattered Clouds
4:51 PM 75.0 °F 55.0 °F 50% 30.08 in 10.0 mi SE 8.1 mph - N/A   Scattered Clouds
5:51 PM 73.9 °F 55.9 °F 53% 30.07 in 10.0 mi South 9.2 mph - N/A   Scattered Clouds
6:51 PM 73.0 °F 55.9 °F 55% 30.06 in 10.0 mi SE 8.1 mph - N/A   Scattered Clouds
7:51 PM 66.0 °F 55.0 °F 68% 30.07 in 10.0 mi East 5.8 mph - N/A   Mostly Cloudy
8:36 PM 66.9 °F 57.0 °F 70% 30.12 in 4.0 mi NNW 17.3 mph 21.9 mph 0.00 in Rain Heavy Rain
8:51 PM 63.0 °F 60.1 °F 90% 30.10 in 7.0 mi ENE 9.2 mph - 0.16 in Rain Rain
9:11 PM 62.1 °F 59.0 °F 90% 30.11 in 10.0 mi NNE 5.8 mph - 0.01 in Thunderstorm Thunderstorm
9:51 PM 62.1 °F 59.0 °F 90% 30.14 in 10.0 mi NE 6.9 mph - 0.01 in Rain , Thunderstorm Light Thunderstorms and Rain
9:54 PM 62.1 °F 59.0 °F 90% 30.14 in 10.0 mi NNE 5.8 mph - 0.00 in Rain Light Rain
10:51 PM 62.1 °F 59.0 °F 90% 30.12 in 10.0 mi ENE 3.5 mph - 0.01 in Rain Light Rain
11:51 PM 61.0 °F 59.0 °F 93% 30.14 in 10.0 mi Calm Calm - 0.00 in   Overcast